Wind_Speed
20 19 17 15 13 11 10 8 7 6 6 5 7 8 8 8 8 9 9 11 12 13 13 14 16 17 18 19 18 18 19 19 20 23 23 21 21 20 19 21 22 23 22 19 12 6 2 2 5 13 20 20 19 22 22 17 18 24 25 25 26 29 30
19 20 18 16 14 12 11 10 8 8 7 7 8 9 10 10 10 11 12 12 13 14 15 16 17 18 18 19 19 18 20 22 22 23 25 25 24 22 20 20 20 20 22 24 21 14 7 3 2 4 16 19 14 19 22 17 16 21 26 25 25 28 29
21 20 19 17 15 13 12 11 10 9 9 9 11 11 11 11 12 12 13 14 14 15 16 17 17 18 19 19 20 20 21 23 23 23 25 25 26 25 24 24 24 21 19 19 21 18 11 6 3 3 12 15 9 14 22 18 14 17 25 26 24 27 29
22 21 20 18 16 14 13 12 11 10 11 12 13 13 13 12 13 13 14 15 15 16 17 17 18 19 20 20 21 21 22 23 23 23 25 25 26 27 27 28 27 24 19 15 16 17 12 7 4 4 10 13 7 10 19 19 14 13 21 28 25 25 29
23 21 20 18 16 14 13 13 12 13 13 14 14 15 14 13 14 15 15 16 16 16 17 18 19 19 20 21 21 22 22 22 22 23 25 26 26 27 28 27 25 24 22 17 15 16 14 9 6 4 9 13 5 7 16 18 16 11 16 27 27 25 29
22 20 18 17 15 13 12 13 14 14 15 16 16 16 15 14 15 16 16 17 17 17 17 18 19 19 20 21 22 22 22 22 22 24 26 26 26 27 26 25 24 23 21 18 16 16 14 13 12 7 10 12 5 8 16 16 17 14 13 25 27 25 29
20 19 17 15 14 13 12 13 14 15 16 17 17 17 16 16 16 16 17 17 17 17 17 18 19 20 20 21 22 23 23 23 23 25 26 26 26 25 25 24 24 23 20 18 16 16 15 15 16 12 12 12 5 7 12 11 15 12 12 27 29 23 29
19 18 16 14 13 13 13 14 15 16 17 18 18 17 17 16 17 17 17 17 17 17 17 18 19 20 20 22 23 24 24 24 24 25 25 25 25 25 24 24 24 23 21 19 17 16 16 15 16 15 13 10 5 7 9 10 14 11 12 27 32 26 30
19 18 16 15 14 13 13 15 17 17 17 18 18 18 17 17 17 18 18 17 17 17 17 18 19 19 20 21 23 24 25 23 23 24 24 24 24 23 23 22 23 24 22 20 19 17 16 14 14 15 16 12 6 5 7 8 11 12 18 28 30 31 35
20 18 17 16 15 15 15 16 17 18 18 18 18 18 17 17 18 18 18 18 17 17 17 18 18 19 19 21 23 24 24 23 23 24 23 24 23 22 22 22 22 23 22 21 20 17 15 14 13 13 15 14 9 5 4 6 5 8 20 28 25 29 37
20 18 17 17 17 17 18 18 18 19 19 19 19 18 18 18 19 19 19 18 17 17 18 18 18 18 19 21 22 23 23 22 23 24 22 23 22 21 22 22 22 22 21 20 20 18 16 15 15 15 15 15 13 8 3 5 6 7 17 27 28 30 35
20 19 18 18 18 18 19 19 19 20 20 19 19 19 19 19 20 19 19 19 18 18 18 18 18 18 19 21 22 22 22 21 23 23 21 21 21 21 22 22 22 21 19 18 18 18 17 17 17 16 16 15 15 12 7 4 5 10 20 27 31 33 33
21 20 20 19 19 19 19 20 20 20 20 20 20 19 19 19 20 20 19 19 18 19 19 18 18 18 19 20 21 22 22 22 23 22 20 19 19 20 22 22 22 20 19 19 18 18 17 18 17 17 17 17 16 16 14 8 6 15 27 28 29 34 34
22 22 21 20 20 20 20 21 21 21 21 20 20 19 19 20 20 20 19 19 19 19 19 19 18 18 19 19 20 22 22 22 22 21 20 19 19 20 21 21 21 20 20 20 20 19 19 18 18 18 17 18 19 18 16 13 9 15 28 31 30 33 35
23 22 22 21 21 21 21 21 21 21 21 21 20 19 19 20 19 19 19 19 19 19 19 19 18 17 18 20 21 21 21 21 21 20 19 19 19 19 20 20 20 19 19 20 20 20 20 19 19 19 19 19 21 21 18 17 15 14 22 32 34 34 35
24 23 23 22 22 22 22 22 22 22 21 21 20 19 19 19 19 19 19 19 20 19 19 18 17 16 17 19 20 20 19 19 19 19 18 18 18 18 18 19 19 18 19 20 21 21 20 20 20 20 21 21 21 22 21 20 19 16 19 29 34 34 35
25 24 23 23 23 23 23 23 23 22 21 20 19 19 18 19 19 19 20 20 20 20 19 18 16 15 16 16 18 18 17 16 16 16 16 17 17 17 17 17 18 18 19 21 21 21 20 20 21 21 21 22 22 22 23 22 22 21 21 26 32 34 34
25 25 25 24 24 24 24 25 23 21 20 20 19 19 19 19 19 19 20 20 20 20 18 17 16 16 15 15 15 15 14 14 14 14 14 15 15 16 16 16 17 18 19 21 21 21 21 21 21 22 22 23 23 23 24 23 24 24 23 26 31 34 34
26 25 25 25 25 25 26 25 24 21 19 19 18 19 19 20 20 20 20 19 19 19 18 16 16 15 15 15 14 13 12 11 11 12 12 12 14 14 15 15 17 18 19 20 20 20 21 21 21 22 23 23 24 24 24 25 25 26 25 25 29 32 34
27 26 26 26 26 27 26 25 22 20 18 17 17 19 20 21 20 20 19 19 18 18 17 17 15 15 14 13 12 11 10 9 9 10 10 10 12 13 14 14 15 17 18 18 18 19 20 22 22 22 23 23 24 24 25 26 26 27 26 26 27 29 31
27 27 27 27 27 27 26 24 21 19 17 15 16 19 21 22 21 20 19 18 17 17 17 17 15 14 13 12 11 10 8 8 8 8 8 9 11 12 12 13 14 16 16 16 16 18 19 20 21 22 23 23 22 23 25 26 26 27 26 26 27 27 30
28 28 28 29 28 27 25 23 20 18 16 15 16 19 21 22 22 21 20 18 17 17 17 17 15 13 13 12 10 9 8 8 7 7 7 8 10 11 11 11 13 15 15 14 15 16 16 17 19 21 22 22 22 22 23 25 25 26 26 26 26 27 27
29 29 29 29 29 27 25 22 20 17 15 15 17 19 21 22 22 21 20 19 18 17 17 17 15 13 12 11 10 9 9 8 8 6 6 7 8 9 9 9 11 13 13 13 14 15 15 17 18 20 21 21 21 21 22 23 24 25 25 25 26 27 23
30 30 30 30 29 27 25 22 19 16 16 17 18 19 21 21 22 21 20 20 19 18 17 16 15 13 11 10 9 9 9 8 8 7 5 5 6 6 6 7 9 12 12 13 14 15 15 17 19 21 21 20 19 19 20 21 23 24 24 25 27 28 24
31 31 31 30 29 27 24 21 19 17 18 19 19 20 20 21 22 21 20 20 19 18 17 16 15 13 11 10 9 8 8 7 6 6 6 4 3 3 5 7 8 10 12 13 14 15 16 18 20 21 21 21 19 18 18 19 21 23 24 24 27 30 29
33 32 32 31 29 27 24 21 19 18 19 20 20 20 20 21 21 21 20 20 19 18 17 15 14 13 11 10 9 8 7 6 5 6 6 4 2 1 4 6 7 9 10 12 14 16 17 19 21 21 21 21 20 19 19 19 20 21 24 25 26 30 32
34 33 33 31 29 26 24 21 19 19 20 21 21 21 21 21 21 21 20 20 19 17 16 14 13 12 11 10 8 7 7 6 5 5 6 5 2 1 4 6 7 8 9 12 15 16 18 20 21 21 21 21 21 21 21 21 21 21 24 26 27 30 33
34 34 33 32 30 27 24 21 20 20 20 21 21 21 22 22 21 21 20 19 19 17 15 14 12 11 10 9 8 7 7 6 6 5 6 6 3 2 3 4 7 8 8 11 14 15 18 20 20 21 22 22 22 23 22 22 22 22 24 27 28 30 33
35 35 34 33 31 28 25 22 21 21 21 21 21 21 22 22 22 21 20 19 18 17 15 13 11 10 9 8 8 8 8 7 6 5 6 5 3 1 2 4 6 7 8 10 12 14 16 18 19 21 23 23 23 23 23 23 23 22 23 25 27 30 32
36 36 35 34 32 29 26 24 22 21 22 22 22 22 22 22 22 21 20 19 18 16 15 12 10 8 8 8 9 10 9 8 7 6 6 5 3 1 1 3 5 6 7 9 11 13 15 16 19 22 24 25 25 25 25 25 24 24 24 25 26 29 32
36 36 36 34 33 30 28 25 22 21 22 22 23 23 23 22 22 20 19 18 16 14 13 11 8 7 7 7 8 10 10 9 8 7 6 5 3 2 1 3 4 5 7 8 9 12 14 15 19 22 24 25 26 26 27 27 26 26 26 26 27 30 33
33 34 34 34 33 31 29 26 22 21 21 22 23 23 23 22 21 19 18 16 14 13 12 11 9 7 7 7 7 8 9 9 9 8 7 5 5 4 2 2 3 5 6 7 8 11 13 14 17 20 22 25 26 27 28 28 27 27 28 29 30 32 34
33 33 33 33 33 31 29 26 23 22 22 22 23 24 23 22 21 19 18 16 15 14 13 12 10 8 7 7 7 7 8 8 8 9 8 7 6 5 3 2 3 4 6 6 7 9 12 14 15 18 21 23 25 26 28 29 28 27 27 29 31 33 35
36 35 34 33 33 31 29 27 25 24 24 24 25 25 23 22 21 19 18 17 16 14 13 12 10 9 7 6 6 7 7 7 8 8 8 8 7 5 3 3 3 4 5 6 6 8 10 13 14 16 19 21 23 26 28 29 29 29 28 29 30 32 35
35 34 34 34 33 32 30 27 26 25 25 26 27 26 25 23 21 20 18 16 15 14 13 11 10 9 7 6 7 8 8 9 9 9 9 7 5 3 3 4 4 4 5 6 7 8 9 11 13 15 17 20 23 26 28 30 31 31 31 31 31 33 35
34 34 34 34 34 33 31 29 27 26 27 28 28 27 26 24 21 19 17 16 14 13 12 11 10 9 7 6 8 10 11 11 10 9 7 6 4 3 3 4 4 5 6 6 8 9 9 10 12 14 16 19 21 24 27 30 32 32 33 33 32 33 34
35 34 34 34 34 33 32 31 30 28 28 30 30 28 26 24 22 19 18 16 14 12 11 10 9 8 7 7 8 11 11 11 9 8 6 5 3 3 4 5 5 6 7 7 8 9 10 10 11 12 15 18 20 23 26 29 31 33 33 34 33 32 33
Wind_Direction
155 147 148 151 148 148 139 127 119 112 110 116 125 132 136 136 129 123 116 111 108 104 101 96 95 95 94 93 90 88 86 82 81 84 83 78 76 75 73 74 73 69 65 66 69 72 78 294 346 14 17 30 45 39 41 52 44 34 34 36 32 27 26
157 151 151 151 148 146 136 126 120 118 121 126 132 136 136 133 126 121 116 111 108 105 103 101 100 98 95 91 88 85 84 82 80 80 79 75 74 74 72 70 68 63 57 55 53 57 67 24 347 346 356 8 30 32 34 46 45 34 30 32 31 26 24
156 154 152 149 147 145 134 127 124 125 131 135 137 138 137 132 124 120 116 112 110 108 107 104 101 96 92 90 86 85 85 83 81 79 78 77 75 72 68 65 61 56 50 43 39 41 48 36 16 318 344 351 352 7 19 32 42 32 25 26 27 23 19
162 159 156 150 147 145 135 130 130 133 138 140 140 140 137 131 125 120 115 115 114 111 108 103 99 96 93 92 90 88 85 84 83 81 81 79 76 72 66 65 63 60 58 50 40 37 41 35 4 324 340 342 319 342 4 17 30 29 19 18 20 18 13
170 167 162 155 151 146 138 136 139 141 141 141 142 140 137 132 127 122 120 120 116 111 107 102 100 98 96 94 92 89 86 85 85 84 83 80 76 74 69 66 65 63 61 56 50 44 43 36 17 339 339 346 326 331 352 4 16 21 15 11 13 13 9
173 171 166 159 156 150 146 146 148 148 145 144 144 140 138 135 131 127 124 122 116 111 108 104 103 100 98 95 90 89 89 89 89 87 86 83 78 76 71 68 64 61 59 53 49 45 43 38 28 8 349 352 320 320 344 356 4 7 6 3 5 9 5
174 171 167 162 159 153 151 153 153 153 149 146 145 141 140 139 135 130 126 121 117 114 111 108 107 103 98 93 89 90 93 94 93 91 89 86 80 75 71 68 63 60 58 53 50 46 43 41 35 23 1 354 324 321 340 348 357 1 355 354 358 3 0
176 170 165 163 159 154 154 155 155 155 151 148 145 142 142 142 138 132 127 122 118 116 115 113 111 105 99 94 92 94 97 98 96 93 90 86 80 75 70 68 64 61 58 54 53 50 47 46 42 36 27 15 347 337 342 341 351 352 343 348 352 356 354
174 168 163 159 156 155 156 157 156 155 153 149 145 144 144 143 140 135 129 125 121 118 118 117 113 107 102 97 97 99 100 101 97 93 90 84 79 74 69 67 65 61 58 56 55 53 51 52 48 42 41 42 30 352 340 337 348 343 337 345 348 349 351
173 170 164 158 154 154 156 157 157 155 153 150 147 147 146 144 143 138 132 128 125 122 120 120 116 111 105 100 100 102 103 102 97 91 86 81 77 74 70 67 64 61 58 57 56 54 52 50 49 43 37 37 35 22 344 327 334 321 329 339 339 339 347
174 171 165 159 155 154 156 159 159 156 153 152 152 150 149 146 144 140 136 133 129 125 124 124 120 114 108 103 101 103 105 102 96 89 83 79 75 73 72 66 62 61 58 58 57 55 52 47 43 39 32 28 20 16 356 312 309 298 319 330 331 331 339
173 170 165 160 158 157 159 161 161 158 156 157 157 155 153 149 146 143 140 137 133 129 128 127 123 117 110 105 104 105 105 100 94 90 83 78 74 72 70 64 60 59 58 59 58 54 50 45 39 33 28 22 11 1 346 307 291 305 315 321 325 330 335
172 170 166 162 161 161 163 164 162 159 159 161 161 159 156 152 149 146 143 141 138 134 132 129 125 120 112 107 107 107 104 98 93 90 86 80 74 68 66 63 61 60 59 59 56 51 46 40 33 26 19 13 7 359 343 320 266 298 316 320 322 328 334
171 169 166 164 163 163 165 165 163 162 162 163 163 161 158 155 152 150 147 145 143 139 136 132 128 122 115 111 110 107 102 97 93 91 87 80 73 67 64 64 64 63 61 57 51 45 39 32 26 20 15 7 3 1 348 329 294 295 316 325 325 328 334
170 168 165 165 165 166 167 165 164 164 164 164 166 165 160 158 156 154 152 150 148 144 140 135 131 125 117 113 112 108 102 98 95 91 86 79 72 66 64 65 66 64 58 51 44 38 31 26 21 16 13 8 2 1 356 339 321 302 311 324 328 329 334
169 168 166 167 168 169 168 167 166 167 166 165 166 166 163 161 160 159 156 154 151 149 144 138 133 127 121 117 114 110 104 99 95 91 85 79 71 65 64 66 66 60 51 43 37 33 28 23 18 13 9 7 2 359 358 348 334 318 308 319 327 329 331
169 168 168 170 171 171 170 169 169 169 168 167 167 167 165 164 164 162 159 156 154 152 147 141 135 128 125 122 118 113 108 102 97 91 85 79 71 63 63 66 63 53 43 37 32 27 25 21 16 12 8 5 1 356 354 351 343 333 318 316 324 329 329
170 170 171 172 173 173 172 171 170 170 169 169 169 169 167 167 167 166 162 159 156 154 150 144 138 131 128 127 124 119 113 107 101 95 89 80 71 63 63 63 57 45 36 31 27 21 19 18 14 11 7 2 358 353 349 349 346 340 329 319 322 328 330
172 172 173 174 174 174 173 171 171 172 172 172 172 172 171 170 171 169 165 161 158 155 153 148 142 136 133 133 132 128 121 114 108 101 94 83 71 64 62 60 49 39 32 25 20 17 14 13 11 9 5 359 355 351 348 349 347 343 337 328 324 326 329
174 175 175 175 175 174 173 172 173 174 175 176 177 177 176 174 173 171 167 165 163 159 156 153 148 143 142 140 139 139 134 127 121 109 98 86 74 64 60 56 43 33 29 23 17 16 13 9 7 5 2 357 353 351 350 349 348 344 339 333 329 326 327
176 176 176 175 175 173 173 174 175 175 176 179 182 182 180 177 174 172 169 168 166 163 161 159 154 150 150 149 148 150 149 145 138 123 107 90 75 67 60 50 38 30 26 22 18 17 13 7 3 0 358 356 353 352 351 349 348 345 340 334 331 329 328
176 176 176 175 174 173 173 175 175 176 177 181 182 181 181 179 175 172 170 169 167 166 165 163 159 156 155 156 155 155 158 160 155 142 120 98 79 70 62 45 33 29 25 21 17 14 10 6 2 358 355 355 355 354 353 351 348 345 341 336 331 332 332
176 175 175 174 174 173 174 175 175 177 178 180 179 178 178 178 176 173 171 170 168 167 167 166 163 161 161 161 159 154 155 161 165 159 129 102 85 69 56 39 28 24 20 16 13 10 6 2 359 356 355 356 357 358 355 352 350 346 341 336 333 333 331
175 175 175 174 174 174 174 174 175 175 176 176 175 174 176 175 174 174 173 171 170 168 168 168 167 167 168 168 168 160 155 158 167 169 148 109 89 64 40 28 23 16 11 10 8 6 2 358 356 356 359 2 3 4 0 354 351 349 343 337 334 335 331
175 175 174 174 174 174 174 173 173 173 174 174 173 172 173 173 172 173 174 172 171 170 170 169 171 173 175 176 177 170 159 156 163 173 171 140 98 53 15 16 19 11 8 7 2 359 357 355 355 356 1 8 9 9 9 3 356 352 347 340 336 336 335
175 174 174 174 174 174 174 172 172 174 175 175 173 171 171 171 172 173 175 174 173 172 171 172 174 179 182 183 184 181 176 171 168 174 178 166 135 23 357 9 13 7 5 3 357 356 354 353 355 358 4 10 13 13 13 11 7 0 354 349 340 339 342
175 174 174 174 174 174 174 174 174 177 177 175 172 171 170 171 172 173 175 175 173 171 171 171 176 182 185 187 189 190 190 185 175 175 179 179 186 324 352 4 5 5 5 358 354 354 354 354 356 360 4 10 14 15 14 12 11 8 3 358 349 345 349
174 174 174 174 175 175 175 175 174 177 178 175 172 171 170 171 171 172 175 175 171 169 168 168 174 182 186 188 193 193 190 186 180 181 185 192 214 302 350 359 360 4 3 357 353 354 354 357 360 2 6 11 13 15 15 12 10 7 4 3 358 354 354
174 173 174 174 175 175 174 174 174 176 177 174 172 171 171 171 172 171 173 175 172 168 167 169 177 188 196 201 200 195 191 187 184 183 186 195 214 280 345 354 358 2 358 352 353 357 359 2 6 8 10 12 13 15 16 14 11 9 6 4 3 2 1
174 173 174 175 175 175 174 173 173 174 175 173 171 171 171 171 172 173 172 174 174 170 169 173 183 195 202 203 199 195 191 187 183 180 181 186 199 223 324 351 356 356 352 350 354 1 5 9 12 13 12 12 13 14 14 13 13 12 9 7 6 7 7
175 174 175 176 176 175 173 172 172 173 175 174 171 171 171 170 172 174 175 176 178 175 172 173 179 186 183 177 181 189 190 187 184 183 182 185 199 211 261 345 353 348 345 348 357 6 11 15 16 15 13 11 10 11 11 10 9 9 9 8 8 9 10
177 177 176 178 179 177 173 172 171 172 174 172 168 168 169 169 170 174 177 179 180 177 171 165 164 166 162 159 168 182 189 191 190 190 193 197 201 203 236 320 334 338 340 346 360 11 16 17 17 16 13 11 9 9 9 9 8 6 5 6 6 7 8
183 183 181 181 180 178 176 172 170 170 171 168 164 164 166 167 168 171 174 174 172 168 163 157 155 156 154 155 163 173 181 189 193 196 199 197 195 199 223 284 303 321 337 345 358 11 17 16 15 14 14 12 9 7 8 10 10 8 5 4 5 5 6
186 186 186 184 182 180 179 175 171 170 170 167 164 162 163 164 165 166 167 167 163 159 156 151 150 151 149 150 158 161 164 172 180 183 183 184 188 199 228 270 288 307 334 347 350 359 9 11 11 12 12 12 10 8 8 10 10 10 8 5 4 5 5
184 185 186 185 184 182 180 178 175 173 171 169 165 162 161 161 162 162 162 161 159 156 153 150 147 145 144 148 155 156 155 158 163 165 169 177 188 206 246 277 288 300 326 345 347 346 353 1 5 7 9 10 10 10 10 10 10 10 9 7 5 4 4
183 185 186 186 186 184 181 179 178 176 175 172 167 164 162 162 162 164 164 163 161 157 154 150 147 144 143 149 159 160 158 158 161 165 172 183 199 228 268 286 291 298 313 333 343 342 342 347 355 1 4 6 7 8 9 10 10 10 9 7 5 3 2
185 189 189 188 187 186 184 182 180 179 179 175 171 169 168 168 171 174 174 172 170 166 160 155 152 149 149 156 165 166 166 166 169 174 183 197 224 254 276 287 294 300 305 317 332 337 336 337 343 351 358 2 3 5 7 8 8 8 8 6 4 1 1
Height
829 831 834 836 837 838 839 840 840 841 842 843 844 845 846 846 846 846 845 845 845 846 846 845 844 843 842 842 842 841 841 841 841 840 842 842 842 844 845 844 845 846 846 846 847 848 849 848 845 845 845 845 846 846 845 844 844 843 841 840 839 837 835
830 832 834 836 837 838 838 839 840 841 843 844 846 847 847 847 847 846 846 846 846 847 847 846 845 844 844 844 843 843 842 842 842 841 842 843 844 845 846 845 846 846 846 847 848 849 850 849 847 846 846 844 845 845 846 845 844 843 842 840 839 838 836
830 832 834 835 837 838 838 839 841 842 844 845 847 848 848 848 848 847 847 847 848 848 848 847 846 846 845 845 844 844 843 843 843 843 844 845 845 846 846 846 847 847 847 848 849 850 851 851 851 850 849 847 846 845 845 845 844 843 842 841 839 838 836
830 831 833 835 836 837 838 839 841 843 844 846 847 848 849 849 848 848 848 849 849 849 849 848 847 847 847 846 846 846 845 845 845 846 846 847 847 847 848 848 849 850 851 852 853 853 853 854 854 853 851 849 847 846 845 844 844 843 842 841 839 838 836
829 830 832 834 836 837 838 839 841 843 845 847 848 849 850 849 849 849 849 850 850 850 850 849 849 848 848 848 847 847 847 847 848 848 848 849 849 849 850 851 852 853 853 855 855 855 855 856 856 855 852 849 847 846 845 844 843 843 842 841 840 838 837
829 830 832 834 836 837 838 840 842 844 845 847 848 849 850 850 850 850 851 851 851 851 851 850 850 850 850 849 849 849 849 849 850 850 850 851 852 852 853 854 854 854 855 856 856 856 856 856 855 854 853 851 849 847 845 844 843 842 841 841 840 838 836
829 830 833 835 837 838 839 841 843 845 846 847 848 849 850 851 851 852 852 852 852 852 852 852 852 852 852 851 851 851 851 852 852 852 853 854 854 855 855 856 856 856 857 857 857 857 857 856 856 855 853 851 849 847 845 844 843 842 841 839 839 838 836
830 831 834 836 837 839 840 842 844 845 847 848 849 850 851 852 852 853 853 853 853 854 853 853 853 853 853 853 853 853 853 854 854 854 856 856 856 857 857 857 858 858 859 859 859 858 858 857 857 857 856 853 850 847 844 843 842 842 840 838 837 836 835
830 832 834 836 838 839 841 843 845 846 847 848 849 850 851 852 853 854 854 854 854 855 855 855 855 855 855 855 855 855 855 856 856 857 858 858 858 859 859 859 859 860 860 860 860 860 860 859 859 859 858 857 856 853 849 844 842 841 839 837 835 833 833
831 833 834 836 838 840 842 843 845 847 848 849 850 851 852 853 854 854 854 855 855 856 856 857 857 857 857 857 857 857 857 858 858 859 859 859 860 860 861 861 861 861 861 861 861 861 861 861 861 860 859 859 859 858 857 852 846 842 840 838 837 833 831
831 833 835 837 838 840 842 844 845 847 848 850 851 852 853 854 855 855 855 856 857 857 858 858 859 859 858 858 858 858 859 860 860 860 861 861 862 862 862 862 862 862 862 863 862 863 863 862 861 861 860 860 859 859 859 857 851 844 841 840 838 835 831
831 834 835 837 838 840 842 844 846 847 849 851 852 853 854 855 855 856 856 857 858 859 859 860 860 860 860 860 860 860 861 861 861 862 863 863 863 863 863 863 863 863 864 864 864 864 863 862 862 861 860 860 859 858 858 858 853 845 842 840 837 835 832
832 834 835 836 839 840 842 844 846 848 850 851 853 854 855 855 855 856 857 858 859 860 861 861 861 861 861 861 861 861 862 863 862 863 864 865 865 865 864 864 864 864 865 865 865 864 863 863 862 861 861 860 859 858 856 857 854 846 841 841 837 833 831
832 834 835 837 839 841 843 845 847 849 850 852 853 854 855 856 856 857 858 859 860 861 861 862 862 862 862 862 863 863 863 864 864 865 865 866 866 866 865 865 865 865 866 865 865 864 863 863 862 861 860 859 858 857 855 854 852 845 839 838 836 832 830
832 834 835 837 839 841 843 846 848 849 851 852 854 855 855 856 857 858 859 860 861 862 862 863 863 863 863 863 863 864 865 865 865 866 866 866 867 867 866 866 866 866 866 866 865 864 863 862 862 861 860 858 857 856 854 852 850 846 839 835 834 831 828
832 833 835 837 840 842 844 846 848 850 851 853 854 855 856 856 857 858 860 861 862 862 863 864 864 864 864 864 864 865 866 866 867 867 867 867 868 868 868 867 867 867 867 866 865 864 863 862 862 860 859 858 856 854 854 852 849 846 841 835 832 829 826
832 833 836 838 840 842 844 847 849 850 852 853 854 855 856 857 858 859 860 861 862 863 863 864 864 865 865 865 866 866 867 867 868 868 868 868 869 869 868 868 868 867 867 866 865 864 864 862 861 860 858 857 855 854 852 851 849 846 842 836 832 829 826
832 833 836 838 840 843 845 847 849 850 852 853 854 855 856 857 859 860 861 862 862 863 864 864 865 865 866 866 867 867 868 868 869 869 869 869 870 869 869 868 868 867 867 866 865 864 863 862 861 859 858 856 855 853 851 850 848 845 843 838 832 829 826
831 833 836 838 840 843 845 847 849 850 851 852 853 855 856 858 859 860 861 862 862 863 863 864 865 865 866 867 867 868 869 869 869 870 870 870 870 870 869 869 868 868 867 866 865 864 863 862 860 859 858 856 854 852 850 848 846 844 842 838 834 828 824
831 833 836 838 840 843 845 847 849 850 851 852 853 855 856 858 859 860 861 861 862 863 863 864 865 866 867 867 868 869 869 870 870 870 871 871 871 870 870 869 869 868 867 867 866 865 863 862 861 859 858 856 854 852 850 848 845 843 840 837 834 829 824
830 833 835 838 840 842 845 847 848 849 850 852 853 854 856 857 858 860 860 861 862 863 863 864 865 866 867 868 868 869 870 870 871 871 871 871 871 871 870 870 869 869 868 867 866 865 864 862 861 859 858 856 854 852 850 847 845 842 840 836 833 829 825
830 833 835 837 840 842 844 846 847 848 850 851 852 854 856 857 858 859 860 861 862 862 863 864 865 866 867 868 869 869 870 870 871 871 871 871 871 871 871 870 870 869 869 868 867 866 865 864 862 860 858 856 854 852 849 847 845 842 839 836 832 829 825
829 832 834 836 839 841 843 845 846 848 849 850 852 853 855 856 857 858 859 860 861 862 863 864 865 866 867 868 869 870 870 871 871 871 872 872 872 871 871 871 870 870 869 868 868 867 865 864 863 861 859 857 855 852 850 847 845 842 839 836 832 829 825
828 831 833 836 838 840 842 844 845 847 848 850 851 853 854 855 856 858 859 860 861 862 863 864 865 866 867 868 869 870 870 871 871 872 872 872 872 872 871 871 871 870 869 868 868 867 866 864 863 861 859 857 855 853 850 847 845 842 840 836 833 829 826
828 830 832 835 837 839 841 843 844 846 847 849 850 852 853 854 856 857 859 860 861 862 863 864 865 866 867 868 869 870 870 871 871 872 872 872 872 872 872 872 871 871 870 869 868 867 866 864 863 861 859 857 855 853 851 848 845 842 840 837 833 829 826
827 829 831 834 836 838 840 842 844 845 847 848 849 851 852 854 855 857 859 860 861 862 863 864 865 867 867 868 869 870 870 871 871 872 872 872 872 872 872 872 872 871 870 869 868 867 865 864 862 861 859 857 855 853 850 848 846 843 840 837 834 830 826
825 828 830 833 835 837 840 841 843 845 846 847 848 850 851 853 855 857 858 860 861 862 863 864 865 867 867 868 869 870 870 871 871 872 872 872 872 873 873 872 872 871 870 869 868 867 865 864 862 860 858 856 854 852 850 847 845 843 841 838 834 831 827
824 826 829 831 834 836 838 840 842 844 846 847 847 849 850 852 854 856 858 860 861 862 863 864 865 866 867 868 869 869 870 870 871 871 872 872 873 873 873 873 872 871 871 869 868 867 865 864 862 860 858 856 853 851 849 846 844 842 840 837 834 831 827
822 824 827 829 831 834 837 839 841 843 845 846 847 848 850 852 854 856 858 859 860 861 863 864 865 866 867 867 868 869 869 870 870 871 872 872 873 873 873 873 872 871 871 870 869 868 866 864 862 860 857 855 853 850 848 846 844 842 839 837 834 831 828
819 822 825 827 829 832 835 838 840 842 844 845 846 847 849 852 854 856 857 859 860 861 862 863 864 865 866 866 867 868 868 869 870 870 871 872 872 873 872 872 872 871 871 870 869 868 866 864 862 860 857 855 852 850 847 845 843 841 839 836 834 831 827
819 821 823 826 828 831 833 836 839 841 843 844 845 847 849 851 853 856 857 858 859 860 861 862 863 864 865 865 866 867 867 868 869 870 871 871 872 872 872 872 872 871 870 869 868 867 866 864 862 860 857 854 852 849 846 843 841 839 837 835 832 829 826
822 824 825 826 828 831 833 835 838 840 842 843 844 846 849 850 853 855 856 858 858 859 860 861 862 863 864 864 865 866 866 867 868 869 870 871 871 872 872 871 871 871 870 869 868 867 866 864 862 860 857 854 851 848 845 843 840 837 835 833 830 827 824
822 825 826 827 829 831 832 834 837 839 842 843 844 846 848 850 852 854 856 857 858 858 859 860 862 863 863 864 864 865 865 866 867 868 869 870 870 871 871 871 871 870 870 869 868 866 865 864 862 860 858 855 852 848 845 843 840 837 835 832 829 826 823
818 821 824 827 830 831 832 834 836 838 841 842 844 846 847 849 852 854 855 856 857 858 858 859 861 862 863 863 863 864 864 865 866 867 868 869 870 870 870 871 870 870 869 868 867 866 865 864 862 860 858 855 852 849 846 843 840 837 835 832 829 826 822
816 820 823 826 829 831 832 834 835 837 840 841 843 845 846 849 851 853 855 856 856 857 858 858 860 861 861 862 863 863 864 865 866 867 868 869 869 869 870 870 869 869 868 867 866 865 864 863 862 860 858 855 852 850 847 843 840 837 834 831 828 825 822
815 819 821 823 826 829 831 833 835 836 838 840 842 844 846 848 850 852 854 855 855 856 857 857 858 859 860 861 862 863 863 864 865 866 867 868 869 869 869 869 868 868 868 867 866 865 864 863 861 859 857 855 852 849 846 843 840 837 833 831 827 825 821
813 817 819 821 824 827 829 831 833 835 838 839 841 843 844 846 849 851 853 854 854 855 855 856 857 858 859 860 862 862 863 864 864 866 867 867 868 868 868 868 867 867 867 866 865 864 863 862 860 858 856 854 852 849 846 843 840 837 833 830 827 825 822